owner,sensor,date,latitude,longitude,vertical_datum,direction_of_sea_water_velocity,sea_water_speed,upward_sea_water_velocity,qcFlag 
TABS,ioos:station:wmo:42050:1,2013-10-01T00:00:00Z,28.8425,-94.2433,2.0,199.7970557,41.36479784,-99999.0,'11111222,11111222,99999999' 
TABS,ioos:station:wmo:42050:1,2013-10-01T00:30:00Z,28.8425,-94.2433,2.0,205.1940002,22.24629857,-99999.0,'11111222,11111222,99999999' 
TABS,ioos:station:wmo:42050:1,2013-10-01T01:00:00Z,28.8425,-94.2433,2.0,211.8585363,42.26755375,-99999.0,'11111222,11111222,99999999' 
TABS,ioos:station:wmo:42050:1,2013-10-01T01:30:00Z,28.8425,-94.2433,2.0,218.6130502,38.52183277,-99999.0,'11111222,11111222,99999999' 
TABS,ioos:station:wmo:42050:1,2013-10-01T02:00:00Z,28.8425,-94.2433,2.0,227.2874471,34.18757815,-99999.0,'11111222,11111222,99999999' 
TABS,ioos:station:wmo:42050:1,2013-10-01T02:30:00Z,28.8425,-94.2433,2.0,243.6994107,29.99493624,-99999.0,'11111222,11111222,99999999' 
TABS,ioos:station:wmo:42050:1,2013-10-01T03:00:00Z,28.8425,-94.2433,2.0,259.1919094,28.63797828,-99999.0,'11111222,11111222,99999999' 
TABS,ioos:station:wmo:42050:1,2013-10-01T03:30:00Z,28.8425,-94.2433,2.0,270.7613018,27.86245682,-99999.0,'11111222,11111222,99999999' 
TABS,ioos:station:wmo:42050:1,2013-10-01T04:00:00Z,28.8425,-94.2433,2.0,274.8428831,25.35048717,-99999.0,'11111222,11111222,99999999' 
TABS,ioos:station:wmo:42050:1,2013-10-01T04:30:00Z,28.8425,-94.2433,2.0,283.7832345,25.22637707,-99999.0,'11111222,11111222,99999999' 
TABS,ioos:station:wmo:42050:1,2013-10-01T05:00:00Z,28.8425,-94.2433,2.0,290.2874385,25.92841106,-99999.0,'11111222,11111222,99999999' 
TABS,ioos:station:wmo:42050:1,2013-10-01T05:30:00Z,28.8425,-94.2433,2.0,298.4244628,24.53810914,-99999.0,'11111222,11111222,99999999' 
TABS,ioos:station:wmo:42050:1,2013-10-01T06:00:00Z,28.8425,-94.2433,2.0,310.3492185,25.11428279,-99999.0,'11111222,11111222,99999999' 
TABS,ioos:station:wmo:42050:1,2013-10-01T06:30:00Z,28.8425,-94.2433,2.0,310.1893805,27.73853096,-99999.0,'11111222,11111222,99999999' 
TABS,ioos:station:wmo:42050:1,2013-10-01T07:00:00Z,28.8425,-94.2433,2.0,311.6084509,28.08598405,-99999.0,'11111222,11111222,99999999' 
TABS,ioos:station:wmo:42050:1,2013-10-01T07:30:00Z,28.8425,-94.2433,2.0,312.2335338,28.56505733,-99999.0,'11111222,11111222,99999999' 
TABS,ioos:station:wmo:42050:1,2013-10-01T08:00:00Z,28.8425,-94.2433,2.0,316.7305955,27.16528667,-99999.0,'11111222,11111222,99999999' 
TABS,ioos:station:wmo:42050:1,2013-10-01T08:30:00Z,28.8425,-94.2433,2.0,314.3969002,26.18561628,-99999.0,'11111222,11111222,99999999' 
TABS,ioos:station:wmo:42050:1,2013-10-01T09:00:00Z,28.8425,-94.2433,2.0,313.8355,22.95743017,-99999.0,'11111222,11111222,99999999' 
TABS,ioos:station:wmo:42050:1,2013-10-01T09:30:00Z,28.8425,-94.2433,2.0,315.9789897,21.52747082,-99999.0,'11111222,11111222,99999999' 
TABS,ioos:station:wmo:42050:1,2013-10-01T10:00:00Z,28.8425,-94.2433,2.0,320.5108939,19.95485154,-99999.0,'11111222,11111222,99999999' 
TABS,ioos:station:wmo:42050:1,2013-10-01T10:30:00Z,28.8425,-94.2433,2.0,333.2067825,17.94682423,-99999.0,'11111222,11111222,99999999' 
TABS,ioos:station:wmo:42050:1,2013-10-01T11:00:00Z,28.8425,-94.2433,2.0,336.7370794,13.9762656,-99999.0,'11111222,11111222,99999999' 
TABS,ioos:station:wmo:42050:1,2013-10-01T11:30:00Z,28.8425,-94.2433,2.0,0.998622714,12.05182974,-99999.0,'11111222,11111222,99999999' 
TABS,ioos:station:wmo:42050:1,2013-10-01T12:00:00Z,28.8425,-94.2433,2.0,349.5474742,9.70098964,-99999.0,'11133222,11111222,99999999' 
TABS,ioos:station:wmo:42050:1,2013-10-01T12:30:00Z,28.8425,-94.2433,2.0,344.8776992,10.23441742,-99999.0,'11111222,11111222,99999999' 
TABS,ioos:station:wmo:42050:1,2013-10-01T13:00:00Z,28.8425,-94.2433,2.0,14.94670233,7.327926037,-99999.0,'11133222,11111222,99999999' 
TABS,ioos:station:wmo:42050:1,2013-10-01T13:30:00Z,28.8425,-94.2433,2.0,21.69131449,5.789991364,-99999.0,'11133222,11111222,99999999' 
TABS,ioos:station:wmo:42050:1,2013-10-01T14:00:00Z,28.8425,-94.2433,2.0,30.31521703,9.846364811,-99999.0,'11133222,11111222,99999999' 
TABS,ioos:station:wmo:42050:1,2013-10-01T14:30:00Z,28.8425,-94.2433,2.0,42.12623035,7.051652289,-99999.0,'11133222,11111222,99999999' 
TABS,ioos:station:wmo:42050:1,2013-10-01T15:00:00Z,28.8425,-94.2433,2.0,76.01519094,8.110394565,-99999.0,'11133222,11111222,99999999' 
TABS,ioos:station:wmo:42050:1,2013-10-01T15:30:00Z,28.8425,-94.2433,2.0,89.49184795,9.02035476,-99999.0,'11133222,11111222,99999999' 
TABS,ioos:station:wmo:42050:1,2013-10-01T16:00:00Z,28.8425,-94.2433,2.0,105.4854751,11.12381679,-99999.0,'11111222,11111222,99999999' 
TABS,ioos:station:wmo:42050:1,2013-10-01T16:30:00Z,28.8425,-94.2433,2.0,95.21876939,17.04063966,-99999.0,'11111222,11111222,99999999' 
TABS,ioos:station:wmo:42050:1,2013-10-01T17:00:00Z,28.8425,-94.2433,2.0,105.5181287,15.47409771,-99999.0,'11111222,11111222,99999999' 
TABS,ioos:station:wmo:42050:1,2013-10-01T17:30:00Z,28.8425,-94.2433,2.0,124.0584803,14.23112785,-99999.0,'11111222,11111222,99999999' 
TABS,ioos:station:wmo:42050:1,2013-10-01T18:00:00Z,28.8425,-94.2433,2.0,158.4277697,16.23733045,-99999.0,'11111222,11111222,99999999' 
TABS,ioos:station:wmo:42050:1,2013-10-01T18:30:00Z,28.8425,-94.2433,2.0,148.6847958,18.74000267,-99999.0,'11111222,11111222,99999999' 
TABS,ioos:station:wmo:42050:1,2013-10-01T19:00:00Z,28.8425,-94.2433,2.0,150.7308045,20.76040944,-99999.0,'11111222,11111222,99999999' 
TABS,ioos:station:wmo:42050:1,2013-10-01T19:30:00Z,28.8425,-94.2433,2.0,152.1631081,25.59139308,-99999.0,'11111222,11111222,99999999' 
TABS,ioos:station:wmo:42050:1,2013-10-01T20:00:00Z,28.8425,-94.2433,2.0,152.7033256,26.97365011,-99999.0,'11111222,11111222,99999999' 
TABS,ioos:station:wmo:42050:1,2013-10-01T20:30:00Z,28.8425,-94.2433,2.0,170.5796315,26.82170203,-99999.0,'11111222,11111222,99999999' 
TABS,ioos:station:wmo:42050:1,2013-10-01T21:00:00Z,28.8425,-94.2433,2.0,185.2993284,25.65968433,-99999.0,'11111222,11111222,99999999' 
TABS,ioos:station:wmo:42050:1,2013-10-01T21:30:00Z,28.8425,-94.2433,2.0,194.7263271,32.61128179,-99999.0,'11111222,11111222,99999999' 
TABS,ioos:station:wmo:42050:1,2013-10-01T22:00:00Z,28.8425,-94.2433,2.0,197.0540051,32.15388779,-99999.0,'11111222,11111222,99999999' 
TABS,ioos:station:wmo:42050:1,2013-10-01T22:30:00Z,28.8425,-94.2433,2.0,195.1741745,31.13559057,-99999.0,'11111222,11111222,99999999' 
TABS,ioos:station:wmo:42050:1,2013-10-01T23:00:00Z,28.8425,-94.2433,2.0,194.1251277,31.18284304,-99999.0,'11111222,11111222,99999999' 
TABS,ioos:station:wmo:42050:1,2013-10-01T23:30:00Z,28.8425,-94.2433,2.0,190.4552802,29.5913315,-99999.0,'11111222,11111222,99999999' 
TABS,ioos:station:wmo:42050:1,2013-10-02T00:00:00Z,28.8425,-94.2433,2.0,192.9662777,25.98251912,-99999.0,'11111222,11111222,99999999' 
TABS,ioos:station:wmo:42050:1,2013-10-02T00:30:00Z,28.8425,-94.2433,2.0,205.6589941,20.36865239,-99999.0,'11111222,11111222,99999999' 
TABS,ioos:station:wmo:42050:1,2013-10-02T01:00:00Z,28.8425,-94.2433,2.0,213.2299515,22.46330786,-99999.0,'11111222,11111222,99999999' 
TABS,ioos:station:wmo:42050:1,2013-10-02T01:30:00Z,28.8425,-94.2433,2.0,229.8344654,20.80640286,-99999.0,'11111222,11111222,99999999' 
TABS,ioos:station:wmo:42050:1,2013-10-02T02:00:00Z,28.8425,-94.2433,2.0,259.907577,19.74551088,-99999.0,'11111222,11111222,99999999' 
TABS,ioos:station:wmo:42050:1,2013-10-02T02:30:00Z,28.8425,-94.2433,2.0,279.3154317,23.66202443,-99999.0,'11111222,11111222,99999999' 
TABS,ioos:station:wmo:42050:1,2013-10-02T03:00:00Z,28.8425,-94.2433,2.0,292.5697967,22.7200088,-99999.0,'11111222,11111222,99999999' 
TABS,ioos:station:wmo:42050:1,2013-10-02T03:30:00Z,28.8425,-94.2433,2.0,309.1844242,26.79585416,-99999.0,'11111222,11111222,99999999' 
TABS,ioos:station:wmo:42050:1,2013-10-02T04:00:00Z,28.8425,-94.2433,2.0,317.5003687,30.15144773,-99999.0,'11111222,11111222,99999999' 
TABS,ioos:station:wmo:42050:1,2013-10-02T04:30:00Z,28.8425,-94.2433,2.0,320.4419559,29.08000688,-99999.0,'11111222,11111222,99999999' 
TABS,ioos:station:wmo:42050:1,2013-10-02T05:00:00Z,28.8425,-94.2433,2.0,326.7064936,30.87812494,-99999.0,'11111222,11111222,99999999' 
TABS,ioos:station:wmo:42050:1,2013-10-02T05:30:00Z,28.8425,-94.2433,2.0,330.4528415,28.79483461,-99999.0,'11111222,11111222,99999999' 
TABS,ioos:station:wmo:42050:1,2013-10-02T06:00:00Z,28.8425,-94.2433,2.0,326.6170228,29.0056891,-99999.0,'11111222,11111222,99999999' 
TABS,ioos:station:wmo:42050:1,2013-10-02T06:30:00Z,28.8425,-94.2433,2.0,322.3829679,28.67043948,-99999.0,'11111222,11111222,99999999' 
TABS,ioos:station:wmo:42050:1,2013-10-02T07:00:00Z,28.8425,-94.2433,2.0,321.2578772,24.91130266,-99999.0,'11111222,11111222,99999999' 
TABS,ioos:station:wmo:42050:1,2013-10-02T07:30:00Z,28.8425,-94.2433,2.0,314.6446571,23.92188329,-99999.0,'11111222,11111222,99999999' 
TABS,ioos:station:wmo:42050:1,2013-10-02T08:00:00Z,28.8425,-94.2433,2.0,315.6148196,22.41657423,-99999.0,'11111222,11111222,99999999' 
TABS,ioos:station:wmo:42050:1,2013-10-02T08:30:00Z,28.8425,-94.2433,2.0,304.0436257,19.34553695,-99999.0,'11111222,11111222,99999999' 
TABS,ioos:station:wmo:42050:1,2013-10-02T09:00:00Z,28.8425,-94.2433,2.0,308.3666583,16.15951113,-99999.0,'11111222,11111222,99999999' 
TABS,ioos:station:wmo:42050:1,2013-10-02T09:30:00Z,28.8425,-94.2433,2.0,289.2680139,13.27348108,-99999.0,'11111222,11111222,99999999' 
TABS,ioos:station:wmo:42050:1,2013-10-02T10:00:00Z,28.8425,-94.2433,2.0,284.4721192,12.44486239,-99999.0,'11111222,11111222,99999999' 
TABS,ioos:station:wmo:42050:1,2013-10-02T10:30:00Z,28.8425,-94.2433,2.0,278.3480988,11.91624941,-99999.0,'11111222,11111222,99999999' 
TABS,ioos:station:wmo:42050:1,2013-10-02T11:00:00Z,28.8425,-94.2433,2.0,260.5774357,11.72822663,-99999.0,'11111222,11111222,99999999' 
TABS,ioos:station:wmo:42050:1,2013-10-02T11:30:00Z,28.8425,-94.2433,2.0,283.1729435,7.240511032,-99999.0,'11133222,11111222,99999999' 
TABS,ioos:station:wmo:42050:1,2013-10-02T12:00:00Z,28.8425,-94.2433,2.0,264.3299613,11.134469,-99999.0,'11111222,11111222,99999999' 
TABS,ioos:station:wmo:42050:1,2013-10-02T12:30:00Z,28.8425,-94.2433,2.0,261.0512307,12.27945439,-99999.0,'11111222,11111222,99999999' 
TABS,ioos:station:wmo:42050:1,2013-10-02T13:00:00Z,28.8425,-94.2433,2.0,252.068823,11.14113549,-99999.0,'11111222,11111222,99999999' 
TABS,ioos:station:wmo:42050:1,2013-10-02T13:30:00Z,28.8425,-94.2433,2.0,255.2979437,10.44186286,-99999.0,'11111222,11111222,99999999' 
TABS,ioos:station:wmo:42050:1,2013-10-02T14:00:00Z,28.8425,-94.2433,2.0,256.7670792,16.42612858,-99999.0,'11111222,11111222,99999999' 
TABS,ioos:station:wmo:42050:1,2013-10-02T14:30:00Z,28.8425,-94.2433,2.0,253.3968717,15.92388458,-99999.0,'11111222,11111222,99999999' 
TABS,ioos:station:wmo:42050:1,2013-10-02T15:00:00Z,28.8425,-94.2433,2.0,257.7277301,20.55979085,-99999.0,'11111222,11111222,99999999' 
TABS,ioos:station:wmo:42050:1,2013-10-02T15:30:00Z,28.8425,-94.2433,2.0,262.7944597,21.28810231,-99999.0,'11111222,11111222,99999999' 
TABS,ioos:station:wmo:42050:1,2013-10-02T16:00:00Z,28.8425,-94.2433,2.0,263.7641473,24.76651974,-99999.0,'11111222,11111222,99999999' 
TABS,ioos:station:wmo:42050:1,2013-10-02T16:30:00Z,28.8425,-94.2433,2.0,265.0624311,27.4217432,-99999.0,'11111222,11111222,99999999' 
TABS,ioos:station:wmo:42050:1,2013-10-02T17:00:00Z,28.8425,-94.2433,2.0,268.8136616,29.95641667,-99999.0,'11111222,11111222,99999999' 
TABS,ioos:station:wmo:42050:1,2013-10-02T17:30:00Z,28.8425,-94.2433,2.0,273.0684288,26.71829523,-99999.0,'11111222,11111222,99999999' 
TABS,ioos:station:wmo:42050:1,2013-10-02T18:00:00Z,28.8425,-94.2433,2.0,274.7269635,26.94162022,-99999.0,'11111222,11111222,99999999' 
TABS,ioos:station:wmo:42050:1,2013-10-02T18:30:00Z,28.8425,-94.2433,2.0,273.9761281,27.11525217,-99999.0,'11111222,11111222,99999999' 
TABS,ioos:station:wmo:42050:1,2013-10-02T19:00:00Z,28.8425,-94.2433,2.0,279.4360393,28.24210509,-99999.0,'11111222,11111222,99999999' 
TABS,ioos:station:wmo:42050:1,2013-10-02T19:30:00Z,28.8425,-94.2433,2.0,279.7147838,26.90579863,-99999.0,'11111222,11111222,99999999' 
TABS,ioos:station:wmo:42050:1,2013-10-02T20:00:00Z,28.8425,-94.2433,2.0,284.345889,20.22048961,-99999.0,'11111222,11111222,99999999' 
TABS,ioos:station:wmo:42050:1,2013-10-02T20:30:00Z,28.8425,-94.2433,2.0,280.6561272,24.39059245,-99999.0,'11111222,11111222,99999999' 
TABS,ioos:station:wmo:42050:1,2013-10-02T21:00:00Z,28.8425,-94.2433,2.0,279.4910887,26.56359162,-99999.0,'11111222,11111222,99999999' 
TABS,ioos:station:wmo:42050:1,2013-10-02T21:30:00Z,28.8425,-94.2433,2.0,272.6412336,20.4016666,-99999.0,'11111222,11111222,99999999' 
TABS,ioos:station:wmo:42050:1,2013-10-02T22:00:00Z,28.8425,-94.2433,2.0,263.9170275,20.38476147,-99999.0,'11111222,11111222,99999999' 
TABS,ioos:station:wmo:42050:1,2013-10-02T22:30:00Z,28.8425,-94.2433,2.0,265.4346951,17.7161988,-99999.0,'11111222,11111222,99999999' 
TABS,ioos:station:wmo:42050:1,2013-10-02T23:00:00Z,28.8425,-94.2433,2.0,263.4165727,20.32400059,-99999.0,'11111222,11111222,99999999' 
TABS,ioos:station:wmo:42050:1,2013-10-02T23:30:00Z,28.8425,-94.2433,2.0,260.019015,14.54004127,-99999.0,'11111222,11111222,99999999' 
TABS,ioos:station:wmo:42050:1,2013-10-03T00:00:00Z,28.8425,-94.2433,2.0,265.515684,15.9889368,-99999.0,'11111222,11111222,99999999' 
TABS,ioos:station:wmo:42050:1,2013-10-03T00:30:00Z,28.8425,-94.2433,2.0,272.2614299,14.70144551,-99999.0,'11111222,11111222,99999999' 
TABS,ioos:station:wmo:42050:1,2013-10-03T01:00:00Z,28.8425,-94.2433,2.0,275.5376749,15.13060475,-99999.0,'11111222,11111222,99999999' 
TABS,ioos:station:wmo:42050:1,2013-10-03T01:30:00Z,28.8425,-94.2433,2.0,291.8933847,15.09890725,-99999.0,'11111222,11111222,99999999' 
TABS,ioos:station:wmo:42050:1,2013-10-03T02:00:00Z,28.8425,-94.2433,2.0,296.8348232,14.26627141,-99999.0,'11111222,11111222,99999999' 
TABS,ioos:station:wmo:42050:1,2013-10-03T02:30:00Z,28.8425,-94.2433,2.0,298.6390562,16.19079059,-99999.0,'11111222,11111222,99999999' 
TABS,ioos:station:wmo:42050:1,2013-10-03T03:00:00Z,28.8425,-94.2433,2.0,245.3014196,9.884194454,-99999.0,'11133222,11111222,99999999' 
TABS,ioos:station:wmo:42050:1,2013-10-03T03:30:00Z,28.8425,-94.2433,2.0,97.86252724,6.359787732,-99999.0,'11133222,11111222,99999999' 
TABS,ioos:station:wmo:42050:1,2013-10-03T04:00:00Z,28.8425,-94.2433,2.0,185.5726084,21.93366818,-99999.0,'11111222,11111222,99999999' 
TABS,ioos:station:wmo:42050:1,2013-10-03T04:30:00Z,28.8425,-94.2433,2.0,293.6680023,22.29526631,-99999.0,'11111222,11111222,99999999' 
TABS,ioos:station:wmo:42050:1,2013-10-03T05:00:00Z,28.8425,-94.2433,2.0,162.9258634,4.393643135,-99999.0,'11133222,11111222,99999999' 
TABS,ioos:station:wmo:42050:1,2013-10-03T05:30:00Z,28.8425,-94.2433,2.0,66.54671359,19.19587716,-99999.0,'11111222,11111222,99999999' 
TABS,ioos:station:wmo:42050:1,2013-10-03T06:00:00Z,28.8425,-94.2433,2.0,50.60936656,15.91540135,-99999.0,'11111222,11111222,99999999' 
TABS,ioos:station:wmo:42050:1,2013-10-03T06:30:00Z,28.8425,-94.2433,2.0,287.449114,10.10497402,-99999.0,'11111222,11111222,99999999' 
TABS,ioos:station:wmo:42050:1,2013-10-03T07:00:00Z,28.8425,-94.2433,2.0,205.7962714,33.34277283,-99999.0,'11111222,11111222,99999999' 
TABS,ioos:station:wmo:42050:1,2013-10-03T07:30:00Z,28.8425,-94.2433,2.0,264.4571322,13.56341034,-99999.0,'11111222,11111222,99999999' 
TABS,ioos:station:wmo:42050:1,2013-10-03T08:00:00Z,28.8425,-94.2433,2.0,212.6078189,8.665962151,-99999.0,'11133222,11111222,99999999' 
TABS,ioos:station:wmo:42050:1,2013-10-03T08:30:00Z,28.8425,-94.2433,2.0,116.4220183,28.67542502,-99999.0,'11111222,11111222,99999999' 
TABS,ioos:station:wmo:42050:1,2013-10-03T09:00:00Z,28.8425,-94.2433,2.0,129.2542406,12.64294665,-99999.0,'11111222,11111222,99999999' 
TABS,ioos:station:wmo:42050:1,2013-10-03T09:30:00Z,28.8425,-94.2433,2.0,223.9540586,7.362207549,-99999.0,'11133222,11111222,99999999' 
TABS,ioos:station:wmo:42050:1,2013-10-03T10:00:00Z,28.8425,-94.2433,2.0,220.8498587,4.494841488,-99999.0,'11133222,11111222,99999999' 
TABS,ioos:station:wmo:42050:1,2013-10-03T10:30:00Z,28.8425,-94.2433,2.0,220.3125414,21.11410903,-99999.0,'11111222,11111222,99999999' 
TABS,ioos:station:wmo:42050:1,2013-10-03T11:00:00Z,28.8425,-94.2433,2.0,334.7560809,14.16254568,-99999.0,'11111222,11111222,99999999' 
TABS,ioos:station:wmo:42050:1,2013-10-03T11:30:00Z,28.8425,-94.2433,2.0,327.9472593,29.3195515,-99999.0,'11111222,11111222,99999999' 
TABS,ioos:station:wmo:42050:1,2013-10-03T12:00:00Z,28.8425,-94.2433,2.0,73.75715888,13.2280006,-99999.0,'11111222,11111222,99999999' 
TABS,ioos:station:wmo:42050:1,2013-10-03T12:30:00Z,28.8425,-94.2433,2.0,156.6545944,31.29173853,-99999.0,'11111222,11111222,99999999' 
TABS,ioos:station:wmo:42050:1,2013-10-03T13:00:00Z,28.8425,-94.2433,2.0,147.9944812,0.943398113,-99999.0,'11133222,11111222,99999999' 
TABS,ioos:station:wmo:42050:1,2013-10-03T13:30:00Z,28.8425,-94.2433,2.0,217.9795832,11.97624733,-99999.0,'11111222,11111222,99999999' 
TABS,ioos:station:wmo:42050:1,2013-10-03T14:00:00Z,28.8425,-94.2433,2.0,105.4662901,6.899862317,-99999.0,'11133222,11111222,99999999' 
TABS,ioos:station:wmo:42050:1,2013-10-03T14:30:00Z,28.8425,-94.2433,2.0,221.8800224,17.93051589,-99999.0,'11111222,11111222,99999999' 
TABS,ioos:station:wmo:42050:1,2013-10-03T15:00:00Z,28.8425,-94.2433,2.0,156.5347638,8.187044644,-99999.0,'11133222,11111222,99999999' 
TABS,ioos:station:wmo:42050:1,2013-10-03T15:30:00Z,28.8425,-94.2433,2.0,342.6178622,1.20503112,-99999.0,'11133222,11111222,99999999' 
TABS,ioos:station:wmo:42050:1,2013-10-03T16:00:00Z,28.8425,-94.2433,2.0,281.9445702,2.126029163,-99999.0,'11133222,11111222,99999999' 
TABS,ioos:station:wmo:42050:1,2013-10-03T16:30:00Z,28.8425,-94.2433,2.0,325.5613017,1.697527614,-99999.0,'11133222,11111222,99999999' 
TABS,ioos:station:wmo:42050:1,2013-10-03T17:00:00Z,28.8425,-94.2433,2.0,320.2973514,2.144621179,-99999.0,'11133222,11111222,99999999' 
TABS,ioos:station:wmo:42050:1,2013-10-03T17:30:00Z,28.8425,-94.2433,2.0,21.08784359,1.639817063,-99999.0,'11133222,11111222,99999999' 
TABS,ioos:station:wmo:42050:1,2013-10-03T18:00:00Z,28.8425,-94.2433,2.0,310.6548941,2.333088082,-99999.0,'11133222,11111222,99999999' 
TABS,ioos:station:wmo:42050:1,2013-10-03T18:30:00Z,28.8425,-94.2433,2.0,307.1045691,2.93402454,-99999.0,'11133222,11111222,99999999' 
TABS,ioos:station:wmo:42050:1,2013-10-03T19:00:00Z,28.8425,-94.2433,2.0,300.4261336,0.730616178,-99999.0,'11133222,11111222,99999999' 
TABS,ioos:station:wmo:42050:1,2013-10-03T19:30:00Z,28.8425,-94.2433,2.0,222.2358334,1.026498904,-99999.0,'11133222,11111222,99999999' 
TABS,ioos:station:wmo:42050:1,2013-10-03T20:00:00Z,28.8425,-94.2433,2.0,255.2560507,2.554094752,-99999.0,'11133222,11111222,99999999' 
TABS,ioos:station:wmo:42050:1,2013-10-03T20:30:00Z,28.8425,-94.2433,2.0,178.3395111,1.380579588,-99999.0,'11133222,11111222,99999999' 
TABS,ioos:station:wmo:42050:1,2013-10-03T21:00:00Z,28.8425,-94.2433,2.0,199.6983649,4.301743832,-99999.0,'11133222,11111222,99999999' 
TABS,ioos:station:wmo:42050:1,2013-10-03T21:30:00Z,28.8425,-94.2433,2.0,192.2929339,6.857229761,-99999.0,'11133222,11111222,99999999' 
TABS,ioos:station:wmo:42050:1,2013-10-03T22:00:00Z,28.8425,-94.2433,2.0,205.5123627,9.495946504,-99999.0,'11133222,11111222,99999999' 
TABS,ioos:station:wmo:42050:1,2013-10-03T22:30:00Z,28.8425,-94.2433,2.0,198.4677759,10.95413164,-99999.0,'11111222,11111222,99999999' 
TABS,ioos:station:wmo:42050:1,2013-10-03T23:00:00Z,28.8425,-94.2433,2.0,213.7330366,14.69401239,-99999.0,'11111222,11111222,99999999' 
TABS,ioos:station:wmo:42050:1,2013-10-03T23:30:00Z,28.8425,-94.2433,2.0,224.9996843,15.69777054,-99999.0,'11111222,11111222,99999999' 
TABS,ioos:station:wmo:42050:1,2013-10-04T00:00:00Z,28.8425,-94.2433,2.0,237.9817416,19.38948168,-99999.0,'11111222,11111222,99999999' 
TABS,ioos:station:wmo:42050:1,2013-10-04T00:30:00Z,28.8425,-94.2433,2.0,249.6928185,20.71764948,-99999.0,'11111222,11111222,99999999' 
TABS,ioos:station:wmo:42050:1,2013-10-04T01:00:00Z,28.8425,-94.2433,2.0,255.2760828,21.83705337,-99999.0,'11111222,11111222,99999999' 
TABS,ioos:station:wmo:42050:1,2013-10-04T01:30:00Z,28.8425,-94.2433,2.0,304.1901697,41.01886639,-99999.0,'11111222,11111222,99999999' 
TABS,ioos:station:wmo:42050:1,2013-10-04T02:00:00Z,28.8425,-94.2433,2.0,309.3856984,40.32886063,-99999.0,'11111222,11111222,99999999' 
TABS,ioos:station:wmo:42050:1,2013-10-04T02:30:00Z,28.8425,-94.2433,2.0,305.5546019,40.15658601,-99999.0,'11111222,11111222,99999999' 
TABS,ioos:station:wmo:42050:1,2013-10-04T03:00:00Z,28.8425,-94.2433,2.0,306.574461,40.68054203,-99999.0,'11111222,11111222,99999999' 
TABS,ioos:station:wmo:42050:1,2013-10-04T03:30:00Z,28.8425,-94.2433,2.0,305.8436589,40.96857576,-99999.0,'11111222,11111222,99999999' 
TABS,ioos:station:wmo:42050:1,2013-10-04T04:00:00Z,28.8425,-94.2433,2.0,305.6710831,40.04276963,-99999.0,'11111222,11111222,99999999' 
TABS,ioos:station:wmo:42050:1,2013-10-04T04:30:00Z,28.8425,-94.2433,2.0,299.9910138,40.19134484,-99999.0,'11111222,11111222,99999999' 
TABS,ioos:station:wmo:42050:1,2013-10-04T05:00:00Z,28.8425,-94.2433,2.0,297.3763962,38.23164788,-99999.0,'11111222,11111222,99999999' 
TABS,ioos:station:wmo:42050:1,2013-10-04T05:30:00Z,28.8425,-94.2433,2.0,296.8315314,35.6254193,-99999.0,'11111222,11111222,99999999' 
TABS,ioos:station:wmo:42050:1,2013-10-04T06:00:00Z,28.8425,-94.2433,2.0,296.6838045,34.62782263,-99999.0,'11111222,11111222,99999999' 
TABS,ioos:station:wmo:42050:1,2013-10-04T06:30:00Z,28.8425,-94.2433,2.0,287.6664817,34.17148665,-99999.0,'11111222,11111222,99999999' 
TABS,ioos:station:wmo:42050:1,2013-10-04T07:00:00Z,28.8425,-94.2433,2.0,285.2538975,31.28202839,-99999.0,'11111222,11111222,99999999' 
TABS,ioos:station:wmo:42050:1,2013-10-04T07:30:00Z,28.8425,-94.2433,2.0,278.2788102,32.78158019,-99999.0,'11111222,11111222,99999999' 
TABS,ioos:station:wmo:42050:1,2013-10-04T08:00:00Z,28.8425,-94.2433,2.0,268.8633135,33.78664381,-99999.0,'11111222,11111222,99999999' 
TABS,ioos:station:wmo:42050:1,2013-10-04T08:30:00Z,28.8425,-94.2433,2.0,265.9907618,35.61714475,-99999.0,'11111222,11111222,99999999' 
TABS,ioos:station:wmo:42050:1,2013-10-04T09:00:00Z,28.8425,-94.2433,2.0,261.9314465,36.62249582,-99999.0,'11111222,11111222,99999999' 
TABS,ioos:station:wmo:42050:1,2013-10-04T09:30:00Z,28.8425,-94.2433,2.0,255.1054165,40.65595405,-99999.0,'11111222,11111222,99999999' 
TABS,ioos:station:wmo:42050:1,2013-10-04T10:00:00Z,28.8425,-94.2433,2.0,251.832682,43.26675629,-99999.0,'11111222,11111222,99999999' 
TABS,ioos:station:wmo:42050:1,2013-10-04T10:30:00Z,28.8425,-94.2433,2.0,249.6866787,48.82649486,-99999.0,'11111222,11111222,99999999' 
TABS,ioos:station:wmo:42050:1,2013-10-04T11:00:00Z,28.8425,-94.2433,2.0,246.3025936,54.78968242,-99999.0,'11111222,11111222,99999999' 
TABS,ioos:station:wmo:42050:1,2013-10-04T11:30:00Z,28.8425,-94.2433,2.0,242.2761877,55.5239714,-99999.0,'11111222,11111222,99999999' 
TABS,ioos:station:wmo:42050:1,2013-10-04T12:00:00Z,28.8425,-94.2433,2.0,236.5073881,50.61392101,-99999.0,'11111222,11111222,99999999' 
TABS,ioos:station:wmo:42050:1,2013-10-04T12:30:00Z,28.8425,-94.2433,2.0,234.0662522,49.31458709,-99999.0,'11111222,11111222,99999999' 
TABS,ioos:station:wmo:42050:1,2013-10-04T13:00:00Z,28.8425,-94.2433,2.0,227.2351664,48.76384009,-99999.0,'11111222,11111222,99999999' 
TABS,ioos:station:wmo:42050:1,2013-10-04T13:30:00Z,28.8425,-94.2433,2.0,229.0949022,45.05166479,-99999.0,'11111222,11111222,99999999' 
TABS,ioos:station:wmo:42050:1,2013-10-04T14:00:00Z,28.8425,-94.2433,2.0,249.8881299,34.69555159,-99999.0,'11111222,11111222,99999999' 
TABS,ioos:station:wmo:42050:1,2013-10-04T14:30:00Z,28.8425,-94.2433,2.0,262.5574519,34.51071283,-99999.0,'11111222,11111222,99999999' 
TABS,ioos:station:wmo:42050:1,2013-10-04T15:00:00Z,28.8425,-94.2433,2.0,282.4090469,54.30865953,-99999.0,'11111222,11111222,99999999' 
TABS,ioos:station:wmo:42050:1,2013-10-04T15:30:00Z,28.8425,-94.2433,2.0,284.7692355,57.66513331,-99999.0,'11111222,11111222,99999999' 
TABS,ioos:station:wmo:42050:1,2013-10-04T16:00:00Z,28.8425,-94.2433,2.0,288.1743004,55.53017198,-99999.0,'11111222,11111222,99999999' 